Simultaneous Nadir Overpasses (SNOs) Predictions

Prediction of SNOs between METOP-B and TERRA Satellite Orbit:

Table of predicted SNOs for the next 14.0 days since TLE Epoch: 3/21/2015
Index Date (METOP-B) Time (METOP-B) Lat,Lon (METOP-B) SZA (METOP-B ) Date (TERRA) Time (TERRA) Lat,Lon (TERRA) SZA (TERRA ) Distance(km) Time Diff (sec)
1 03/22/2015 22:01:35 81.29,-103.16 83.11 03/22/2015 22:02:00 81.29,-103.28 83.10 2.06 25
2 03/22/2015 22:52:15 -81.30, 64.51 96.87 03/22/2015 22:51:26 -81.30, 64.64 96.88 2.23 49
3 03/25/2015 17:35:59 81.29, -36.76 82.03 03/25/2015 17:36:16 81.29, -36.75 82.04 0.15 17
4 03/25/2015 18:26:39 -81.30, 130.96 97.95 03/25/2015 18:25:43 -81.29, 130.81 97.99 2.66 56
5 03/28/2015 13:10:21 81.30, 29.96 80.99 03/28/2015 13:10:30 81.30, 29.86 80.99 1.78 9
6 03/
